TimeEDT,TemperatureF,Dew PointF,Humidity,Sea Level PressureIn,VisibilityMPH,Wind Direction,Wind SpeedMPH,Gust SpeedMPH,PrecipitationIn,Events,Conditions,WindDirDegrees,DateUTC
12:53 AM,73.0,70.0,90,29.85,10.0,WNW,3.5,-,N/A,,Clear,290,2012-10-16 04:53:00
1:53 AM,72.0,70.0,93,29.84,10.0,Calm,Calm,-,N/A,,Clear,0,2012-10-16 05:53:00
2:53 AM,71.1,70.0,96,29.84,10.0,WNW,3.5,-,N/A,,Clear,290,2012-10-16 06:53:00
3:53 AM,72.0,70.0,93,29.83,10.0,NW,4.6,-,N/A,,Clear,310,2012-10-16 07:53:00
4:53 AM,72.0,70.0,93,29.83,10.0,NW,6.9,-,N/A,,Clear,320,2012-10-16 08:53:00
5:53 AM,70.0,69.1,97,29.83,10.0,Calm,Calm,-,N/A,,Clear,0,2012-10-16 09:53:00
6:53 AM,69.1,68.0,96,29.83,10.0,NW,3.5,-,N/A,,Clear,310,2012-10-16 10:53:00
8:53 AM,73.9,71.1,91,29.87,10.0,NW,5.8,-,N/A,,Clear,320,2012-10-16 12:53:00
9:53 AM,80.1,72.0,76,29.88,10.0,North,9.2,-,N/A,,Clear,360,2012-10-16 13:53:00
10:53 AM,82.9,71.1,67,29.87,10.0,North,6.9,-,N/A,,Partly Cloudy,10,2012-10-16 14:53:00
11:53 AM,84.0,70.0,63,29.86,10.0,NNW,6.9,-,N/A,,Scattered Clouds,340,2012-10-16 15:53:00
12:53 PM,84.0,70.0,63,29.84,10.0,North,13.8,18.4,N/A,,Scattered Clouds,360,2012-10-16 16:53:00
1:53 PM,82.9,69.1,63,29.83,10.0,NNE,12.7,-,N/A,,Partly Cloudy,20,2012-10-16 17:53:00
2:53 PM,84.0,69.1,61,29.81,10.0,NNE,10.4,-,N/A,,Partly Cloudy,20,2012-10-16 18:53:00
3:53 PM,82.9,69.1,63,29.81,10.0,NNE,10.4,-,N/A,,Clear,20,2012-10-16 19:53:00
4:53 PM,82.0,68.0,62,29.80,10.0,NE,13.8,-,N/A,,Clear,40,2012-10-16 20:53:00
5:53 PM,80.1,69.1,69,29.81,10.0,NNE,10.4,-,N/A,,Clear,20,2012-10-16 21:53:00
6:53 PM,78.1,69.1,74,29.82,10.0,North,5.8,-,N/A,,Clear,10,2012-10-16 22:53:00
7:53 PM,75.9,69.1,79,29.83,10.0,North,4.6,-,N/A,,Clear,360,2012-10-16 23:53:00
8:53 PM,75.9,68.0,76,29.84,10.0,NNE,4.6,-,N/A,,Clear,30,2012-10-17 00:53:00
9:53 PM,75.0,68.0,79,29.85,10.0,NNE,3.5,-,N/A,,Clear,30,2012-10-17 01:53:00
10:53 PM,71.1,66.9,87,29.85,10.0,Calm,Calm,-,N/A,,Clear,0,2012-10-17 02:53:00
11:53 PM,72.0,68.0,87,29.84,10.0,Calm,Calm,-,N/A,,Clear,0,2012-10-17 03:53:00